| time (UTC) | temp F | wind direction | speed MPH | gust MPH | rain 1hr in | rain 24hr in | rain mn in | humidity % | barometer mb |
| 20260504044537 | 49 | 240 | 2.0 | 6.0 | 0.00 | 0.00 | 0.00 | 59 | 1004.6 |
| 20260504043046 | 50 | 241 | 6.0 | 11.0 | 0.00 | 0.00 | 0.00 | 58 | 1004.7 |
| 20260504041537 | 50 | 205 | 8.0 | 15.0 | 0.00 | 0.00 | 0.00 | 58 | 1004.8 |
| 20260504040042 | 51 | 234 | 7.0 | 15.0 | 0.00 | 0.00 | 0.00 | 56 | 1004.7 |
| 20260504034546 | 51 | 193 | 6.0 | 18.0 | 0.00 | 0.00 | 0.00 | 53 | 1004.7 |
| 20260504033037 | 51 | 251 | 8.0 | 15.0 | 0.00 | 0.00 | 0.00 | 52 | 1004.7 |
| 20260504031548 | 50 | 217 | 4.0 | 9.0 | 0.00 | 0.00 | 0.00 | 50 | 1004.6 |
| 20260504030050 | 50 | 233 | 4.0 | 12.0 | 0.00 | 0.00 | 0.00 | 50 | 1004.7 |
| 20260504024540 | 50 | 174 | 4.0 | 11.0 | 0.00 | 0.00 | 0.00 | 51 | 1004.8 |
| 20260504023041 | 51 | 189 | 2.0 | 6.0 | 0.00 | 0.00 | 0.00 | 46 | 1004.8 |
| 20260504021545 | 52 | 222 | 3.0 | 10.0 | 0.00 | 0.00 | 0.00 | 44 | 1004.9 |
| 20260504020038 | 51 | 253 | 4.0 | 10.0 | 0.00 | 0.00 | 0.00 | 45 | 1004.9 |
| 20260504014536 | 49 | 241 | 2.0 | 5.0 | 0.00 | 0.00 | 0.00 | 52 | 1005.0 |
| 20260504013037 | 49 | 156 | 4.0 | 7.0 | 0.00 | 0.00 | 0.00 | 54 | 1005.1 |
| 20260504011539 | 49 | 195 | 2.0 | 6.0 | 0.00 | 0.00 | 0.00 | 53 | 1004.9 |
| 20260504010045 | 50 | 196 | 3.0 | 8.0 | 0.00 | 0.00 | 0.00 | 52 | 1004.7 |
| 20260504004544 | 51 | 176 | 4.0 | 9.0 | 0.00 | 0.00 | 0.00 | 51 | 1004.7 |
| 20260504003037 | 51 | 168 | 4.0 | 10.0 | 0.00 | 0.00 | 0.00 | 49 | 1004.7 |
| 20260504001539 | 52 | 157 | 3.0 | 11.0 | 0.00 | 0.00 | 0.00 | 48 | 1004.6 |
| 20260504000040 | 53 | 178 | 3.0 | 10.0 | 0.00 | 0.00 | 0.00 | 45 | 1004.5 |
| 20260503234541 | 55 | 195 | 5.0 | 14.0 | 0.00 | 0.00 | 0.00 | 37 | 1004.5 |
| 20260503233038 | 56 | 283 | 6.0 | 13.0 | 0.00 | 0.00 | 0.00 | 27 | 1004.3 |
| 20260503231538 | 57 | 262 | 8.0 | 14.0 | 0.00 | 0.00 | 0.00 | 25 | 1004.3 |
| 20260503230050 | 59 | 279 | 4.0 | 9.0 | 0.00 | 0.00 | 0.00 | 25 | 1004.3 |
| 20260503224535 | 59 | 215 | 4.0 | 12.0 | 0.00 | 0.00 | 0.00 | 27 | 1004.4 |
| 20260503223036 | 59 | 291 | 8.0 | 15.0 | 0.00 | 0.00 | 0.00 | 24 | 1004.3 |
| 20260503221546 | 58 | 236 | 3.0 | 12.0 | 0.00 | 0.00 | 0.00 | 27 | 1004.5 |
| 20260503220040 | 59 | 241 | 12.0 | 19.0 | 0.00 | 0.00 | 0.00 | 24 | 1004.6 |
| 20260503214551 | 58 | 307 | 6.0 | 15.0 | 0.00 | 0.00 | 0.00 | 26 | 1004.7 |
| 20260503213037 | 59 | 289 | 9.0 | 16.0 | 0.00 | 0.00 | 0.00 | 25 | 1004.8 |
| 20260503211537 | 59 | 252 | 10.0 | 19.0 | 0.00 | 0.00 | 0.00 | 24 | 1004.6 |
| 20260503210035 | 59 | 236 | 4.0 | 10.0 | 0.00 | 0.00 | 0.00 | 27 | 1004.7 |
| 20260503204543 | 56 | 257 | 8.0 | 14.0 | 0.00 | 0.00 | 0.00 | 27 | 1004.9 |
| 20260503203038 | 58 | 333 | 6.0 | 13.0 | 0.00 | 0.00 | 0.00 | 26 | 1005.0 |
| 20260503201541 | 55 | 311 | 4.0 | 15.0 | 0.00 | 0.00 | 0.00 | 29 | 1005.1 |
| 20260503200038 | 58 | 265 | 8.0 | 15.0 | 0.00 | 0.00 | 0.00 | 26 | 1005.5 |
| 20260503194545 | 56 | 281 | 4.0 | 15.0 | 0.00 | 0.00 | 0.00 | 28 | 1005.6 |
| 20260503193037 | 58 | 256 | 13.0 | 21.0 | 0.00 | 0.00 | 0.00 | 27 | 1005.9 |
| 20260503191538 | 57 | 316 | 8.0 | 17.0 | 0.00 | 0.00 | 0.00 | 27 | 1006.1 |
| 20260503190043 | 56 | 229 | 8.0 | 17.0 | 0.00 | 0.00 | 0.00 | 29 | 1006.4 |
| 20260503184539 | 56 | 278 | 5.0 | 15.0 | 0.00 | 0.00 | 0.00 | 30 | 1006.6 |
| 20260503183041 | 54 | 295 | 6.0 | 14.0 | 0.00 | 0.00 | 0.00 | 32 | 1006.9 |
| 20260503181554 | 55 | 269 | 5.0 | 15.0 | 0.00 | 0.00 | 0.00 | 32 | 1007.1 |
| 20260503180046 | 53 | 262 | 6.0 | 16.0 | 0.00 | 0.00 | 0.00 | 33 | 1007.3 |
| 20260503174538 | 53 | 321 | 7.0 | 15.0 | 0.00 | 0.00 | 0.00 | 32 | 1007.4 |
| 20260503173040 | 53 | 286 | 6.0 | 13.0 | 0.00 | 0.00 | 0.00 | 33 | 1007.6 |
| 20260503171538 | 51 | 302 | 8.0 | 19.0 | 0.00 | 0.00 | 0.00 | 33 | 1007.7 |
| 20260503081535 | 40 | 307 | 2.0 | 5.0 | 0.00 | 0.00 | 0.00 | 59 | 1010.4 |
| 20260503071540 | 40 | 0 | 2.0 | 4.0 | 0.00 | 0.00 | 0.00 | 59 | 1010.4 |
| 20260503054540 | 40 | 282 | 0.0 | 2.0 | 0.00 | 0.00 | 0.00 | 58 | 1010.7 |
| 20260503053037 | 40 | 282 | 0.0 | 2.0 | 0.00 | 0.00 | 0.00 | 56 | 1010.7 |
| 20260503051536 | 41 | 282 | 0.0 | 2.0 | 0.00 | 0.00 | 0.00 | 54 | 1010.9 |
| 20260503050041 | 41 | 282 | 0.0 | 3.0 | 0.00 | 0.00 | 0.00 | 53 | 1011.0 |